Regional Weather Roundup
Issued by NWS

Home | Current Version | Previous Version | Graphics & Text | Print | Product List | Glossary On
Versions: 1 2 3 4 5 6 7 8 9 10 11 12 13 14 15 16 17 18 19 20 21 22 23 24 25 26 27 28 29 30 31 32 33 34 35 36 37 38 39 40 41 42 43 44 45 46 47 48 49 50
000
ASUS43 KLOT 301510
RWRIL

ILLINOIS REGIONAL WEATHER ROUNDUP
NATIONAL WEATHER SERVICE CHICAGO/ROMEOVILLE IL
1000 AM CDT SAT AUG 30 2014

NOTE: "FAIR" INDICATES FEW OR NO CLOUDS BELOW 12,000 FEET WITH NO
SIGNIFICANT WEATHER AND/OR OBSTRUCTIONS TO VISIBILITY.

* THESE STATIONS ARE NOT UNDER NWS QUALITY CONTROL. THEY ALSO MAY NOT
  REPORT WEATHER SUCH AS PRECIPITATION OR FOG.

ILZ001-002-007-009-015-016-024-301600-
NORTHWEST ILLINOIS

CITY           SKY/WX    TMP DP  RH WIND       PRES   REMARKS
MOLINE         CLOUDY    74  67  78 W13       29.86R
STERLING*      CLOUDY    73  66  78 W15G21    29.86R
SAVANNA*       CLOUDY    72  65  78 SW10      29.83S
$$

ILZ003-004-008-010-011-017-018-301600-
NORTH CENTRAL ILLINOIS

CITY           SKY/WX    TMP DP  RH WIND       PRES   REMARKS
ROCKFORD       CLOUDY    73  67  81 SW15G24   29.84S
FREEPORT*      CLOUDY    70  68  93 SW13      29.84S
ROCHELLE*      CLOUDY    72  68  86 SW14G21   29.85S
DE KALB*       CLOUDY    71  67  89 SW12      29.86S
PERU*          CLOUDY    74  68  82 SW15G22   29.88R
$$

ILZ005-006-012>014-019>023-301600-
NORTHEAST ILLINOIS

CITY           SKY/WX    TMP DP  RH WIND       PRES   REMARKS
CHICAGO-OHARE  PTSUNNY   77  66  68 SW13G21   29.85S
CHICAGO-MIDWAY PTSUNNY   79  71  76 S17G24    29.86S HX  82
AURORA         CLOUDY    75  68  78 SW15      29.86S
LANSING*         N/A    N/A N/A N/A MISG        N/A
JOLIET*        PTSUNNY   76  68  76 S14       29.88S
WAUKEGAN       MOSUNNY   76  69  79 S16G22    29.82F
DUPAGE AIRPORT CLOUDY    75  68  78 SW15G22   29.85F
KANKAKEE*      CLOUDY    77  71  83 SW16G22   29.91S
WHEELING       PTSUNNY   78  68  71 SW16      29.86S HX  80
MORRIS*        PTSUNNY   77  70  80 SW15      29.88S
ROMEOVILLE*    PTSUNNY   76  69  79 SW15G22   29.87S
NORTHERLY ISL    N/A     76  67  73 S14         N/A
$$

LMZ740>746-301600-
SOUTHERN LAKE MICHIGAN

STATION/POSITION SKY/WX   TEMP    WIND        PRES    VSBY  WAVE
                          AIR SEA DIR/SP/G                  HT/PER
                          (F)     (DEG/KT/KT) (MB)    (MI)  (FT/S)
SOUTHERN BUOY              71 69  180/ 12/ 14   N/A
WAUKEGAN HARBOR            74     210/ 17/ 22   N/A
HARRISON CRIB              75     210/ 20/ 26   N/A
BURNHAM HARBOR             77     190/ 10/ 15   N/A
CALUMET HARBOR             76     200/ 13/ 17 1010.3F
MICHIGAN CITY              75     180/ 16/ 20   N/A
MICHIGAN CITY 6N           75 72  200/ 14/ 19   N/A           2/ 3
ST. JOSEPH                 73 71  190/ 12/ 16   N/A           2/ 4
$$

ILZ025>027-034>036-040-047-049-050-058-095>099-301600-
WEST-CENTRAL ILLINOIS

CITY           SKY/WX    TMP DP  RH WIND       PRES   REMARKS
QUINCY         PTSUNNY   76  70  82 SW10      29.91R
GALESBURG*     CLOUDY    76  71  83 W10       29.89S
MACOMB*        MOSUNNY   74  70  86 SW9       29.92S
JACKSONVILLE*  SUNNY     80  72  75 SW13      29.94R HX  84
PITTSFIELD*    MOSUNNY   79  70  74 SW7G16    29.93S HX  82
$$

ILZ028>032-037-038-041>044-048-051>054-059>061-301600-
CENTRAL ILLINOIS

CITY           SKY/WX    TMP DP  RH WIND       PRES   REMARKS
PONTIAC        MOSUNNY   79  72  78 S13       29.90S HX  82
DECATUR        CLOUDY    78  70  76 SW12      29.95S HX  80
PEORIA         CLOUDY    77  70  79 SW13      29.90R
LACON*         CLOUDY    74  68  81 SW12      29.88R
LINCOLN*       MOSUNNY   78  71  78 SW8       29.90S HX  81
SPRINGFIELD    SUNNY     79  70  74 SW12G20   29.94R HX  82
TAYLORVILLE    CLOUDY    73  70  88 S10G17    29.96R
$$

ILZ033-039-045-046-055>057-062-063-301600-
EAST-CENTRAL ILLINOIS

CITY           SKY/WX    TMP DP  RH WIND       PRES   REMARKS
CHAMPAIGN      CLOUDY    77  71  82 SW14G21   29.96R
DANVILLE*      HVY RAIN  77  71  81 S15G21    29.94S
RANTOUL*       PTSUNNY   78  68  72 SW13      29.96R HX  80
MATTOON        MOSUNNY   77  70  79 S14       29.99R
PARIS*         PTSUNNY   77  71  82 S13       30.00R
$$

ILZ079-100>102-301600-
SOUTHWEST ILLINOIS

CITY           SKY/WX    TMP DP  RH WIND       PRES   REMARKS
ALTON          PTSUNNY   79  70  73 S6        29.97R HX  81
BELLEVILLE     PTSUNNY   77  73  86 VRB6      29.98R
CAHOKIA*       CLOUDY    79  70  74 S7        29.97R HX  82
SPARTA*        CLOUDY    74  70  86 SW10G16   30.01R
$$

ILZ064>066-069>071-074>076-080>082-084>086-088>090-092>094-301600-
SOUTH-CENTRAL ILLINOIS

CITY           SKY/WX    TMP DP  RH WIND       PRES   REMARKS
CARBONDALE     LGT RAIN  72  70  93 S8        30.03R FOG
CAIRO*         HVY RAIN  78  72  82 W3        30.03R HX  80
EFFINGHAM*     RAIN      76  69  78 S10       30.00R
MARION         RAIN      73  72  94 SW9       30.04R
MT. VERNON     CLOUDY    75  70  83 S10       30.03R
CENTRALIA*     CLOUDY    73  70  88 S6        30.02R
SALEM*         CLOUDY    75  72  89 S9G16     30.01R
METROPOLIS*    CLOUDY    79  71  76 W6        30.03R HX  82
$$

ILZ067-068-072-073-078-083-087-091-301600-
SOUTHEAST ILLINOIS

CITY           SKY/WX    TMP DP  RH WIND       PRES   REMARKS
LAWRENCEVILLE  CLOUDY    73  71  93 S8        30.02S
FLORA*         CLOUDY    72  70  93 W8        30.03R
FAIRFIELD*     CLOUDY    73  72  94 S8        30.02R
HARRISBURG*    CLOUDY    75  73  93 S5        30.04S
ROBINSON*      RAIN      74  72  93 SW7       30.03R
CARMI*         CLOUDY    76  73  91 SW3       30.03R
$$

ABBREVIATIONS USED IN REMARKS
   TC - TEMPERATURE IN CELSIUS
  WCI - WIND CHILL INDEX
   HX - HEAT INDEX
  VSB - VISIBILITY
$$



USA.gov is the U.S. government's official web portal to all federal, state and local government web resources and services.